Year,Month,Day,Hour,Minute,Value (Times are PST for temperature in C)
2015,07,02,00,00,21.10
2015,07,02,00,01,21.10
2015,07,02,00,02,21.10
2015,07,02,00,03,21.00
2015,07,02,00,04,21.00
2015,07,02,00,05,21.00
2015,07,02,00,06,21.00
2015,07,02,00,07,21.00
2015,07,02,00,08,21.10
2015,07,02,00,09,21.10
2015,07,02,00,10,21.10
2015,07,02,00,11,21.10
2015,07,02,00,12,21.10
2015,07,02,00,13,21.10
2015,07,02,00,14,21.10
2015,07,02,00,15,21.10
2015,07,02,00,16,21.10
2015,07,02,00,17,21.10
2015,07,02,00,18,21.10
2015,07,02,00,19,21.10
2015,07,02,00,20,21.10
2015,07,02,00,21,21.20
2015,07,02,00,22,21.20
2015,07,02,00,23,21.30
2015,07,02,00,24,21.30
2015,07,02,00,25,21.30
2015,07,02,00,26,21.30
2015,07,02,00,27,21.30
2015,07,02,00,28,21.30
2015,07,02,00,29,21.30
2015,07,02,00,30,21.30
2015,07,02,00,31,21.20
2015,07,02,00,32,21.20
2015,07,02,00,33,21.10
2015,07,02,00,34,21.10
2015,07,02,00,35,21.10
2015,07,02,00,36,21.20
2015,07,02,00,37,21.20
2015,07,02,00,38,21.10
2015,07,02,00,39,21.10
2015,07,02,00,40,21.00
2015,07,02,00,41,20.90
2015,07,02,00,42,20.90
2015,07,02,00,43,20.80
2015,07,02,00,44,20.80
2015,07,02,00,45,20.80
2015,07,02,00,46,20.80
2015,07,02,00,47,20.70
2015,07,02,00,48,20.70
2015,07,02,00,49,20.70
2015,07,02,00,50,20.70
2015,07,02,00,51,20.70
2015,07,02,00,52,20.70
2015,07,02,00,53,20.70
2015,07,02,00,54,20.70
2015,07,02,00,55,20.70
2015,07,02,00,56,20.70
2015,07,02,00,57,20.60
2015,07,02,00,58,20.60
2015,07,02,00,59,20.60
2015,07,02,01,00,20.60
2015,07,02,01,01,20.60
2015,07,02,01,02,20.60
2015,07,02,01,03,20.60
2015,07,02,01,04,20.60
2015,07,02,01,05,20.60
2015,07,02,01,06,20.60
2015,07,02,01,07,20.60
2015,07,02,01,08,20.70
2015,07,02,01,09,20.70
2015,07,02,01,10,20.70
2015,07,02,01,11,20.70
2015,07,02,01,12,20.70
2015,07,02,01,13,20.60
2015,07,02,01,14,20.60
2015,07,02,01,15,20.60
2015,07,02,01,16,20.60
2015,07,02,01,17,20.60
2015,07,02,01,18,20.60
2015,07,02,01,19,20.60
2015,07,02,01,20,20.50
2015,07,02,01,21,20.50
2015,07,02,01,22,20.40
2015,07,02,01,23,20.40
2015,07,02,01,24,20.40
2015,07,02,01,25,20.30
2015,07,02,01,26,20.30
2015,07,02,01,27,20.30
2015,07,02,01,28,20.30
2015,07,02,01,29,20.30
2015,07,02,01,30,20.30
2015,07,02,01,31,20.30
2015,07,02,01,32,20.30
2015,07,02,01,33,20.30
2015,07,02,01,34,20.30
2015,07,02,01,35,20.30
2015,07,02,01,36,20.30
2015,07,02,01,37,20.30
2015,07,02,01,38,20.30
2015,07,02,01,39,20.30
2015,07,02,01,40,20.40
2015,07,02,01,41,20.40
2015,07,02,01,42,20.40
2015,07,02,01,43,20.40
2015,07,02,01,44,20.40
2015,07,02,01,45,20.40
2015,07,02,01,46,20.40
2015,07,02,01,47,20.30
2015,07,02,01,48,20.30
2015,07,02,01,49,20.30
2015,07,02,01,50,20.30
2015,07,02,01,51,20.30
2015,07,02,01,52,20.30
2015,07,02,01,53,20.30
2015,07,02,01,54,20.30
2015,07,02,01,55,20.30
2015,07,02,01,56,20.30
2015,07,02,01,57,20.30
2015,07,02,01,58,20.30
2015,07,02,01,59,20.30
2015,07,02,02,00,20.30
2015,07,02,02,01,20.30
2015,07,02,02,02,20.30
2015,07,02,02,03,20.30
2015,07,02,02,04,20.20
2015,07,02,02,05,20.20
2015,07,02,02,06,20.20
2015,07,02,02,07,20.20
2015,07,02,02,08,20.20
2015,07,02,02,09,20.20
2015,07,02,02,10,20.10
2015,07,02,02,11,20.10
2015,07,02,02,12,20.10
2015,07,02,02,13,20.10
2015,07,02,02,14,20.00
2015,07,02,02,15,20.00
2015,07,02,02,16,20.00
2015,07,02,02,17,19.90
2015,07,02,02,18,19.90
2015,07,02,02,19,19.90
2015,07,02,02,20,19.90
2015,07,02,02,21,20.00
2015,07,02,02,22,20.00
2015,07,02,02,23,20.10
2015,07,02,02,24,20.10
2015,07,02,02,25,20.20
2015,07,02,02,26,20.20
2015,07,02,02,27,20.20
2015,07,02,02,28,20.20
2015,07,02,02,29,20.20
2015,07,02,02,30,20.20
2015,07,02,02,31,20.20
2015,07,02,02,32,20.20
2015,07,02,02,33,20.20
2015,07,02,02,34,20.30
2015,07,02,02,35,20.30
2015,07,02,02,36,20.30
2015,07,02,02,37,20.30
2015,07,02,02,38,20.30
2015,07,02,02,39,20.30
2015,07,02,02,40,20.30
2015,07,02,02,41,20.30
2015,07,02,02,42,20.30
2015,07,02,02,43,20.20
2015,07,02,02,44,20.20
2015,07,02,02,45,20.20
2015,07,02,02,46,20.20
2015,07,02,02,47,20.20
2015,07,02,02,48,20.20
2015,07,02,02,49,20.30
2015,07,02,02,50,20.30
2015,07,02,02,51,20.30
2015,07,02,02,52,20.30
2015,07,02,02,53,20.30
2015,07,02,02,54,20.40
2015,07,02,02,55,20.40
2015,07,02,02,56,20.40
2015,07,02,02,57,20.40
2015,07,02,02,58,20.40
2015,07,02,02,59,20.40
2015,07,02,03,00,20.30
2015,07,02,03,01,20.30
2015,07,02,03,02,20.40
2015,07,02,03,03,20.30
2015,07,02,03,04,20.30
2015,07,02,03,05,20.30
2015,07,02,03,06,20.30
2015,07,02,03,07,20.40
2015,07,02,03,08,20.40
2015,07,02,03,09,20.50
2015,07,02,03,10,20.60
2015,07,02,03,11,20.60
2015,07,02,03,12,20.70
2015,07,02,03,13,20.70
2015,07,02,03,14,20.70
2015,07,02,03,15,20.70
2015,07,02,03,16,20.70
2015,07,02,03,17,20.70
2015,07,02,03,18,20.70
2015,07,02,03,19,20.70
2015,07,02,03,20,20.70
2015,07,02,03,21,20.60
2015,07,02,03,22,20.40
2015,07,02,03,23,20.30
2015,07,02,03,24,20.20
2015,07,02,03,25,20.20
2015,07,02,03,26,20.10
2015,07,02,03,27,20.00
2015,07,02,03,28,19.90
2015,07,02,03,29,19.80
2015,07,02,03,30,19.70
2015,07,02,03,31,19.70
2015,07,02,03,32,19.60
2015,07,02,03,33,19.60
2015,07,02,03,34,19.60
2015,07,02,03,35,19.60
2015,07,02,03,36,19.60
2015,07,02,03,37,19.60
2015,07,02,03,38,19.70
2015,07,02,03,39,19.80
2015,07,02,03,40,19.80
2015,07,02,03,41,19.80
2015,07,02,03,42,19.80
2015,07,02,03,43,19.90
2015,07,02,03,44,19.90
2015,07,02,03,45,19.90
2015,07,02,03,46,19.90
2015,07,02,03,47,20.00
2015,07,02,03,48,20.00
2015,07,02,03,49,20.10
2015,07,02,03,50,20.10
2015,07,02,03,51,20.10
2015,07,02,03,52,20.10
2015,07,02,03,53,20.10
2015,07,02,03,54,20.10
2015,07,02,03,55,20.00
2015,07,02,03,56,19.90
2015,07,02,03,57,19.80
2015,07,02,03,58,19.80
2015,07,02,03,59,19.90
2015,07,02,04,00,19.90
2015,07,02,04,01,20.00
2015,07,02,04,02,20.00
2015,07,02,04,03,20.00
2015,07,02,04,04,20.00
2015,07,02,04,05,19.90
2015,07,02,04,06,19.90
2015,07,02,04,07,19.90
2015,07,02,04,08,19.80
2015,07,02,04,09,19.70
2015,07,02,04,10,19.60
2015,07,02,04,11,19.60
2015,07,02,04,12,19.50
2015,07,02,04,13,19.40
2015,07,02,04,14,19.30
2015,07,02,04,15,19.20
2015,07,02,04,16,19.10
2015,07,02,04,17,19.00
2015,07,02,04,18,18.90
2015,07,02,04,19,18.90
2015,07,02,04,20,18.80
2015,07,02,04,21,18.80
2015,07,02,04,22,18.80
2015,07,02,04,23,18.80
2015,07,02,04,24,18.70
2015,07,02,04,25,18.70
2015,07,02,04,26,18.70
2015,07,02,04,27,18.70
2015,07,02,04,28,18.70
2015,07,02,04,29,18.70
2015,07,02,04,30,18.70
2015,07,02,04,31,18.70
2015,07,02,04,32,18.70
2015,07,02,04,33,18.70
2015,07,02,04,34,18.70
2015,07,02,04,35,18.80
2015,07,02,04,36,18.80
2015,07,02,04,37,18.80
2015,07,02,04,38,18.70
2015,07,02,04,39,18.60
2015,07,02,04,40,18.50
2015,07,02,04,41,18.50
2015,07,02,04,42,18.40
2015,07,02,04,43,18.30
2015,07,02,04,44,18.30
2015,07,02,04,45,18.30
2015,07,02,04,46,18.30
2015,07,02,04,47,18.20
2015,07,02,04,48,18.20
2015,07,02,04,49,18.20
2015,07,02,04,50,18.20
2015,07,02,04,51,18.20
2015,07,02,04,52,18.20
2015,07,02,04,53,18.20
2015,07,02,04,54,18.20
2015,07,02,04,55,18.30
2015,07,02,04,56,18.30
2015,07,02,04,57,18.30
2015,07,02,04,58,18.20
2015,07,02,04,59,18.20
2015,07,02,05,00,18.20
2015,07,02,05,01,18.30
2015,07,02,05,02,18.30
2015,07,02,05,03,18.30
2015,07,02,05,04,18.30
2015,07,02,05,05,18.30
2015,07,02,05,06,18.30
2015,07,02,05,07,18.40
2015,07,02,05,08,18.40
2015,07,02,05,09,18.40
2015,07,02,05,10,18.40
2015,07,02,05,11,18.40
2015,07,02,05,12,18.40
2015,07,02,05,13,18.40
2015,07,02,05,14,18.40
2015,07,02,05,15,18.30
2015,07,02,05,16,18.30
2015,07,02,05,17,18.30
2015,07,02,05,18,18.30
2015,07,02,05,19,18.30
2015,07,02,05,20,18.30
2015,07,02,05,21,18.30
2015,07,02,05,22,18.30
2015,07,02,05,23,18.20
2015,07,02,05,24,18.20
2015,07,02,05,25,18.20
2015,07,02,05,26,18.20
2015,07,02,05,27,18.20
2015,07,02,05,28,18.10
2015,07,02,05,29,18.10
2015,07,02,05,30,18.10
2015,07,02,05,31,18.00
2015,07,02,05,32,17.90
2015,07,02,05,33,17.90
2015,07,02,05,34,17.90
2015,07,02,05,35,17.90
2015,07,02,05,36,17.80
2015,07,02,05,37,17.80
2015,07,02,05,38,17.80
2015,07,02,05,39,17.70
2015,07,02,05,40,17.70
2015,07,02,05,41,17.70
2015,07,02,05,42,17.70
2015,07,02,05,43,17.70
2015,07,02,05,44,17.70
2015,07,02,05,45,17.70
2015,07,02,05,46,17.70
2015,07,02,05,47,17.70
2015,07,02,05,48,17.70
2015,07,02,05,49,17.70
2015,07,02,05,50,17.70
2015,07,02,05,51,17.70
2015,07,02,05,52,17.70
2015,07,02,05,53,17.70
2015,07,02,05,54,17.80
2015,07,02,05,55,17.80
2015,07,02,05,56,17.80
2015,07,02,05,57,17.80
2015,07,02,05,58,17.80
2015,07,02,05,59,17.80
2015,07,02,06,00,17.80
2015,07,02,06,01,17.80
2015,07,02,06,02,17.80
2015,07,02,06,03,17.80
2015,07,02,06,04,17.80
2015,07,02,06,05,17.80
2015,07,02,06,06,17.80
2015,07,02,06,07,17.80
2015,07,02,06,08,17.80
2015,07,02,06,09,17.70
2015,07,02,06,10,17.70
2015,07,02,06,11,17.70
2015,07,02,06,12,17.70
2015,07,02,06,13,17.70
2015,07,02,06,14,17.70
2015,07,02,06,15,17.80
2015,07,02,06,16,17.80
2015,07,02,06,17,17.80
2015,07,02,06,18,17.80
2015,07,02,06,19,17.80
2015,07,02,06,20,17.70
2015,07,02,06,21,17.70
2015,07,02,06,22,17.70
2015,07,02,06,23,17.60
2015,07,02,06,24,17.60
2015,07,02,06,25,17.60
2015,07,02,06,26,17.60
2015,07,02,06,27,17.60
2015,07,02,06,28,17.60
2015,07,02,06,29,17.60
2015,07,02,06,30,17.60
2015,07,02,06,31,17.60
2015,07,02,06,32,17.60
2015,07,02,06,33,17.50
2015,07,02,06,34,17.50
2015,07,02,06,35,17.50
2015,07,02,06,36,17.50
2015,07,02,06,37,17.50
2015,07,02,06,38,17.60
2015,07,02,06,39,17.60
2015,07,02,06,40,17.70
2015,07,02,06,41,17.70
2015,07,02,06,42,17.80
2015,07,02,06,43,17.80
2015,07,02,06,44,17.90
2015,07,02,06,45,17.90
2015,07,02,06,46,17.90
2015,07,02,06,47,18.00
2015,07,02,06,48,18.00
2015,07,02,06,49,18.10
2015,07,02,06,50,18.10
2015,07,02,06,51,18.20
2015,07,02,06,52,18.20
2015,07,02,06,53,18.30
2015,07,02,06,54,18.30
2015,07,02,06,55,18.40
2015,07,02,06,56,18.40
2015,07,02,06,57,18.50
2015,07,02,06,58,18.50
2015,07,02,06,59,18.60
2015,07,02,07,00,18.60
2015,07,02,07,01,18.60
2015,07,02,07,02,18.60
2015,07,02,07,03,18.60
2015,07,02,07,04,18.70
2015,07,02,07,05,18.80
2015,07,02,07,06,18.90
2015,07,02,07,07,18.90
2015,07,02,07,08,18.90
2015,07,02,07,09,19.00
2015,07,02,07,10,19.10
2015,07,02,07,11,19.10
2015,07,02,07,12,19.10
2015,07,02,07,13,19.10
2015,07,02,07,14,19.20
2015,07,02,07,15,19.30
2015,07,02,07,16,19.30
2015,07,02,07,17,19.30
2015,07,02,07,18,19.30
2015,07,02,07,19,19.30
2015,07,02,07,20,19.30
2015,07,02,07,21,19.30
2015,07,02,07,22,19.20
2015,07,02,07,23,19.20
2015,07,02,07,24,19.30
2015,07,02,07,25,19.40
2015,07,02,07,26,19.40
2015,07,02,07,27,19.50
2015,07,02,07,28,19.50
2015,07,02,07,29,19.60
2015,07,02,07,30,19.60
2015,07,02,07,31,19.60
2015,07,02,07,32,19.60
2015,07,02,07,33,19.70
2015,07,02,07,34,19.70
2015,07,02,07,35,19.70
2015,07,02,07,36,19.60
2015,07,02,07,37,19.60
2015,07,02,07,38,19.50
2015,07,02,07,39,19.50
2015,07,02,07,40,19.40
2015,07,02,07,41,19.40
2015,07,02,07,42,19.40
2015,07,02,07,43,19.30
2015,07,02,07,44,19.30
2015,07,02,07,45,19.30
2015,07,02,07,46,19.30
2015,07,02,07,47,19.30
2015,07,02,07,48,19.40
2015,07,02,07,49,19.40
2015,07,02,07,50,19.40
2015,07,02,07,51,19.40
2015,07,02,07,52,19.40
2015,07,02,07,53,19.50
2015,07,02,07,54,19.50
2015,07,02,07,55,19.50
2015,07,02,07,56,19.60
2015,07,02,07,57,19.60
2015,07,02,07,58,19.70
2015,07,02,07,59,19.70
2015,07,02,08,00,19.80
2015,07,02,08,01,19.80
2015,07,02,08,02,19.90
2015,07,02,08,03,19.90
2015,07,02,08,04,19.90
2015,07,02,08,05,19.90
2015,07,02,08,06,19.90
2015,07,02,08,07,19.80
2015,07,02,08,08,19.80
2015,07,02,08,09,19.80
2015,07,02,08,10,19.80
2015,07,02,08,11,19.90
2015,07,02,08,12,19.90
2015,07,02,08,13,19.90
2015,07,02,08,14,20.00
2015,07,02,08,15,20.00
2015,07,02,08,16,20.00
2015,07,02,08,17,20.00
2015,07,02,08,18,20.10
2015,07,02,08,19,20.10
2015,07,02,08,20,20.10
2015,07,02,08,21,20.20
2015,07,02,08,22,20.20
2015,07,02,08,23,20.20
2015,07,02,08,24,20.30
2015,07,02,08,25,20.30
2015,07,02,08,26,20.40
2015,07,02,08,27,20.40
2015,07,02,08,28,20.50
2015,07,02,08,29,20.60
2015,07,02,08,30,20.60
2015,07,02,08,31,20.70
2015,07,02,08,32,20.60
2015,07,02,08,33,20.60
2015,07,02,08,34,20.70
2015,07,02,08,35,20.70
2015,07,02,08,36,20.70
2015,07,02,08,37,20.70
2015,07,02,08,38,20.80
2015,07,02,08,39,20.90
2015,07,02,08,40,21.00
2015,07,02,08,41,21.10
2015,07,02,08,42,21.10
2015,07,02,08,43,21.20
2015,07,02,08,44,21.20
2015,07,02,08,45,21.30
2015,07,02,08,46,21.30
2015,07,02,08,47,21.30
2015,07,02,08,48,21.30
2015,07,02,08,49,21.30
2015,07,02,08,50,21.30
2015,07,02,08,51,21.30
2015,07,02,08,52,21.40
2015,07,02,08,53,21.40
2015,07,02,08,54,21.40
2015,07,02,08,55,21.50
2015,07,02,08,56,21.50
2015,07,02,08,57,21.60
2015,07,02,08,58,21.70
2015,07,02,08,59,21.70
2015,07,02,09,00,21.70
2015,07,02,09,01,21.70
2015,07,02,09,02,21.70
2015,07,02,09,03,21.70
2015,07,02,09,04,21.80
2015,07,02,09,05,21.80
2015,07,02,09,06,21.80
2015,07,02,09,07,21.80
2015,07,02,09,08,21.80
2015,07,02,09,09,21.90
2015,07,02,09,10,21.90
2015,07,02,09,11,22.00
2015,07,02,09,12,22.00
2015,07,02,09,13,22.10
2015,07,02,09,14,22.10
2015,07,02,09,15,22.10
2015,07,02,09,16,22.10
2015,07,02,09,17,22.10
2015,07,02,09,18,22.10
2015,07,02,09,19,22.10
2015,07,02,09,20,22.20
2015,07,02,09,21,22.20
2015,07,02,09,22,22.20
2015,07,02,09,23,22.20
2015,07,02,09,24,22.20
2015,07,02,09,25,22.20
2015,07,02,09,26,22.30
2015,07,02,09,27,22.30
2015,07,02,09,28,22.30
2015,07,02,09,29,22.40
2015,07,02,09,30,22.40
2015,07,02,09,31,22.50
2015,07,02,09,32,22.60
2015,07,02,09,33,22.70
2015,07,02,09,34,22.70
2015,07,02,09,35,22.70
2015,07,02,09,36,22.80
2015,07,02,09,37,22.80
2015,07,02,09,38,22.80
2015,07,02,09,39,22.90
2015,07,02,09,40,23.00
2015,07,02,09,41,23.00
2015,07,02,09,42,23.10
2015,07,02,09,43,23.10
2015,07,02,09,44,23.20
2015,07,02,09,45,23.20
2015,07,02,09,46,23.20
2015,07,02,09,47,23.20
2015,07,02,09,48,23.20
2015,07,02,09,49,23.20
2015,07,02,09,50,23.30
2015,07,02,09,51,23.30
2015,07,02,09,52,23.40
2015,07,02,09,53,23.40
2015,07,02,09,54,23.50
2015,07,02,09,55,23.50
2015,07,02,09,56,23.60
2015,07,02,09,57,23.70
2015,07,02,09,58,23.80
2015,07,02,09,59,23.80
2015,07,02,10,00,23.90
2015,07,02,10,01,23.90
2015,07,02,10,02,24.00
2015,07,02,10,03,24.00
2015,07,02,10,04,24.00
2015,07,02,10,05,24.10
2015,07,02,10,06,24.20
2015,07,02,10,07,24.30
2015,07,02,10,08,24.30
2015,07,02,10,09,24.40
2015,07,02,10,10,24.40
2015,07,02,10,11,24.30
2015,07,02,10,12,24.30
2015,07,02,10,13,24.40
2015,07,02,10,14,24.40
2015,07,02,10,15,24.50
2015,07,02,10,16,24.50
2015,07,02,10,17,24.60
2015,07,02,10,18,24.60
2015,07,02,10,19,24.60
2015,07,02,10,20,24.60
2015,07,02,10,21,24.70
2015,07,02,10,22,24.70
2015,07,02,10,23,24.70
2015,07,02,10,24,24.70
2015,07,02,10,25,24.70
2015,07,02,10,26,24.80
2015,07,02,10,27,24.80
2015,07,02,10,28,24.90
2015,07,02,10,29,24.90
2015,07,02,10,30,25.00
2015,07,02,10,31,25.00
2015,07,02,10,32,25.10
2015,07,02,10,33,25.10
2015,07,02,10,34,25.20
2015,07,02,10,35,25.20
2015,07,02,10,36,25.30
2015,07,02,10,37,25.30
2015,07,02,10,38,25.30
2015,07,02,10,39,25.30
2015,07,02,10,40,25.30
2015,07,02,10,41,25.30
2015,07,02,10,42,25.30
2015,07,02,10,43,25.40
2015,07,02,10,44,25.40
2015,07,02,10,45,25.40
2015,07,02,10,46,25.50
2015,07,02,10,47,25.60
2015,07,02,10,48,25.60
2015,07,02,10,49,25.60
2015,07,02,10,50,25.70
2015,07,02,10,51,25.70
2015,07,02,10,52,25.70
2015,07,02,10,53,25.70
2015,07,02,10,54,25.80
2015,07,02,10,55,25.80
2015,07,02,10,56,25.80
2015,07,02,10,57,25.90
2015,07,02,10,58,25.90
2015,07,02,10,59,25.90
2015,07,02,11,00,26.00
2015,07,02,11,01,26.10
2015,07,02,11,02,26.10
2015,07,02,11,03,26.10
2015,07,02,11,04,26.20
2015,07,02,11,05,26.30
2015,07,02,11,06,26.30
2015,07,02,11,07,26.30
2015,07,02,11,08,26.40
2015,07,02,11,09,26.40
2015,07,02,11,10,26.40
2015,07,02,11,11,26.30
2015,07,02,11,12,26.30
2015,07,02,11,13,26.30
2015,07,02,11,14,26.30
2015,07,02,11,15,26.30
2015,07,02,11,16,26.30
2015,07,02,11,17,26.40
2015,07,02,11,18,26.40
2015,07,02,11,19,26.50
2015,07,02,11,20,26.40
2015,07,02,11,21,26.40
2015,07,02,11,22,26.40
2015,07,02,11,23,26.50
2015,07,02,11,24,26.50
2015,07,02,11,25,26.50
2015,07,02,11,26,26.60
2015,07,02,11,27,26.60
2015,07,02,11,28,26.60
2015,07,02,11,29,26.60
2015,07,02,11,30,26.60
2015,07,02,11,31,26.70
2015,07,02,11,32,26.70
2015,07,02,11,33,26.80
2015,07,02,11,34,26.90
2015,07,02,11,35,26.90
2015,07,02,11,36,27.00
2015,07,02,11,37,27.10
2015,07,02,11,38,27.10
2015,07,02,11,39,27.20
2015,07,02,11,40,27.20
2015,07,02,11,41,27.20
2015,07,02,11,42,27.20
2015,07,02,11,43,27.20
2015,07,02,11,44,27.20
2015,07,02,11,45,27.20
2015,07,02,11,46,27.20
2015,07,02,11,47,27.20
2015,07,02,11,48,27.30
2015,07,02,11,49,27.30
2015,07,02,11,50,27.30
2015,07,02,11,51,27.30
2015,07,02,11,52,27.40
2015,07,02,11,53,27.50
2015,07,02,11,54,27.60
2015,07,02,11,55,27.60
2015,07,02,11,56,27.70
2015,07,02,11,57,27.70
2015,07,02,11,58,27.70
2015,07,02,11,59,27.80
2015,07,02,12,00,27.80
2015,07,02,12,01,28.00
2015,07,02,12,02,28.10
2015,07,02,12,03,28.20
2015,07,02,12,04,28.20
2015,07,02,12,05,28.10
2015,07,02,12,06,28.10
2015,07,02,12,07,28.00
2015,07,02,12,08,28.00
2015,07,02,12,09,28.00
2015,07,02,12,10,28.00
2015,07,02,12,11,28.10
2015,07,02,12,12,28.10
2015,07,02,12,13,28.20
2015,07,02,12,14,28.30
2015,07,02,12,15,28.30
2015,07,02,12,16,28.40
2015,07,02,12,17,28.40
2015,07,02,12,18,28.40
2015,07,02,12,19,28.40
2015,07,02,12,20,28.40
2015,07,02,12,21,28.50
2015,07,02,12,22,28.50
2015,07,02,12,23,28.60
2015,07,02,12,24,28.70
2015,07,02,12,25,28.70
2015,07,02,12,26,28.70
2015,07,02,12,27,28.70
2015,07,02,12,28,28.70
2015,07,02,12,29,28.70
2015,07,02,12,30,28.70
2015,07,02,12,31,28.70
2015,07,02,12,32,28.80
2015,07,02,12,33,28.80
2015,07,02,12,34,28.80
2015,07,02,12,35,28.80
2015,07,02,12,36,28.80
2015,07,02,12,37,28.80
2015,07,02,12,38,28.90
2015,07,02,12,39,28.90
2015,07,02,12,40,28.90
2015,07,02,12,41,29.00
2015,07,02,12,42,29.10
2015,07,02,12,43,29.20
2015,07,02,12,44,29.20
2015,07,02,12,45,29.20
2015,07,02,12,46,29.30
2015,07,02,12,47,29.30
2015,07,02,12,48,29.30
2015,07,02,12,49,29.40
2015,07,02,12,50,29.40
2015,07,02,12,51,29.40
2015,07,02,12,52,29.50
2015,07,02,12,53,29.40
2015,07,02,12,54,29.40
2015,07,02,12,55,29.40
2015,07,02,12,56,29.50
2015,07,02,12,57,29.60
2015,07,02,12,58,29.60
2015,07,02,12,59,29.60
2015,07,02,13,00,29.60
2015,07,02,13,01,29.60
2015,07,02,13,02,29.70
2015,07,02,13,03,29.80
2015,07,02,13,04,29.80
2015,07,02,13,05,29.80
2015,07,02,13,06,29.80
2015,07,02,13,07,29.80
2015,07,02,13,08,29.90
2015,07,02,13,09,29.90
2015,07,02,13,10,29.90
2015,07,02,13,11,29.90
2015,07,02,13,12,29.90
2015,07,02,13,13,29.90
2015,07,02,13,14,29.90
2015,07,02,13,15,29.90
2015,07,02,13,16,29.90
2015,07,02,13,17,29.90
2015,07,02,13,18,30.00
2015,07,02,13,19,30.00
2015,07,02,13,20,30.00
2015,07,02,13,21,30.10
2015,07,02,13,22,30.00
2015,07,02,13,23,30.00
2015,07,02,13,24,30.00
2015,07,02,13,25,30.10
2015,07,02,13,26,30.10
2015,07,02,13,27,30.20
2015,07,02,13,28,30.20
2015,07,02,13,29,30.20
2015,07,02,13,30,30.30
2015,07,02,13,31,30.30
2015,07,02,13,32,30.30
2015,07,02,13,33,30.30
2015,07,02,13,34,30.30
2015,07,02,13,35,30.30
2015,07,02,13,36,30.30
2015,07,02,13,37,30.30
2015,07,02,13,38,30.30
2015,07,02,13,39,30.30
2015,07,02,13,40,30.40
2015,07,02,13,41,30.40
2015,07,02,13,42,30.40
2015,07,02,13,43,30.40
2015,07,02,13,44,30.40
2015,07,02,13,45,30.50
2015,07,02,13,46,30.50
2015,07,02,13,47,30.60
2015,07,02,13,48,30.70
2015,07,02,13,49,30.70
2015,07,02,13,50,30.70
2015,07,02,13,51,30.70
2015,07,02,13,52,30.70
2015,07,02,13,53,30.70
2015,07,02,13,54,30.70
2015,07,02,13,55,30.70
2015,07,02,13,56,30.80
2015,07,02,13,57,30.80
2015,07,02,13,58,30.80
2015,07,02,13,59,30.80
2015,07,02,14,00,30.80
2015,07,02,14,01,30.80
2015,07,02,14,02,30.80
2015,07,02,14,03,30.80
2015,07,02,14,04,30.70
2015,07,02,14,05,30.70
2015,07,02,14,06,30.80
2015,07,02,14,07,30.90
2015,07,02,14,08,30.90
2015,07,02,14,09,30.90
2015,07,02,14,10,31.00
2015,07,02,14,11,31.00
2015,07,02,14,12,31.00
2015,07,02,14,13,31.10
2015,07,02,14,14,31.10
2015,07,02,14,15,31.20
2015,07,02,14,16,31.20
2015,07,02,14,17,31.20
2015,07,02,14,18,31.10
2015,07,02,14,19,31.10
2015,07,02,14,20,31.10
2015,07,02,14,21,31.10
2015,07,02,14,22,31.10
2015,07,02,14,23,31.10
2015,07,02,14,24,31.10
2015,07,02,14,25,31.20
2015,07,02,14,26,31.30
2015,07,02,14,27,31.30
2015,07,02,14,28,31.40
2015,07,02,14,29,31.60
2015,07,02,14,30,31.70
2015,07,02,14,31,31.80
2015,07,02,14,32,31.80
2015,07,02,14,33,31.80
2015,07,02,14,34,31.80
2015,07,02,14,35,31.70
2015,07,02,14,36,31.80
2015,07,02,14,37,31.80
2015,07,02,14,38,31.80
2015,07,02,14,39,31.80
2015,07,02,14,40,31.80
2015,07,02,14,41,31.80
2015,07,02,14,42,31.90
2015,07,02,14,43,32.00
2015,07,02,14,44,32.00
2015,07,02,14,45,32.10
2015,07,02,14,46,32.10
2015,07,02,14,47,32.20
2015,07,02,14,48,32.20
2015,07,02,14,49,32.10
2015,07,02,14,50,32.10
2015,07,02,14,51,32.10
2015,07,02,14,52,32.10
2015,07,02,14,53,32.10
2015,07,02,14,54,32.00
2015,07,02,14,55,31.90
2015,07,02,14,56,31.80
2015,07,02,14,57,31.80
2015,07,02,14,58,31.80
2015,07,02,14,59,31.90
2015,07,02,15,00,31.80
2015,07,02,15,01,31.80
2015,07,02,15,02,31.80
2015,07,02,15,03,31.80
2015,07,02,15,04,31.70
2015,07,02,15,05,31.70
2015,07,02,15,06,31.70
2015,07,02,15,07,31.70
2015,07,02,15,08,31.70
2015,07,02,15,09,31.80
2015,07,02,15,10,31.80
2015,07,02,15,11,31.80
2015,07,02,15,12,31.80
2015,07,02,15,13,31.70
2015,07,02,15,14,31.70
2015,07,02,15,15,31.70
2015,07,02,15,16,31.70
2015,07,02,15,17,31.70
2015,07,02,15,18,31.60
2015,07,02,15,19,31.60
2015,07,02,15,20,31.60
2015,07,02,15,21,31.60
2015,07,02,15,22,31.70
2015,07,02,15,23,31.70
2015,07,02,15,24,31.70
2015,07,02,15,25,31.80
2015,07,02,15,26,31.80
2015,07,02,15,27,31.80
2015,07,02,15,28,31.90
2015,07,02,15,29,31.90
2015,07,02,15,30,31.90
2015,07,02,15,31,31.90
2015,07,02,15,32,31.90
2015,07,02,15,33,31.90
2015,07,02,15,34,31.90
2015,07,02,15,35,32.00
2015,07,02,15,36,32.00
2015,07,02,15,37,32.00
2015,07,02,15,38,32.00
2015,07,02,15,39,32.10
2015,07,02,15,40,32.20
2015,07,02,15,41,32.20
2015,07,02,15,42,32.10
2015,07,02,15,43,32.10
2015,07,02,15,44,32.10
2015,07,02,15,45,32.00
2015,07,02,15,46,32.00
2015,07,02,15,47,32.00
2015,07,02,15,48,32.00
2015,07,02,15,49,32.10
2015,07,02,15,50,32.10
2015,07,02,15,51,32.10
2015,07,02,15,52,32.10
2015,07,02,15,53,32.00
2015,07,02,15,54,32.00
2015,07,02,15,55,32.00
2015,07,02,15,56,32.10
2015,07,02,15,57,32.10
2015,07,02,15,58,32.00
2015,07,02,15,59,32.00
2015,07,02,16,00,32.00
2015,07,02,16,01,32.00
2015,07,02,16,02,32.00
2015,07,02,16,03,31.90
2015,07,02,16,04,31.90
2015,07,02,16,05,31.90
2015,07,02,16,06,32.00
2015,07,02,16,07,32.00
2015,07,02,16,08,32.00
2015,07,02,16,09,32.00
2015,07,02,16,10,32.00
2015,07,02,16,11,31.90
2015,07,02,16,12,31.90
2015,07,02,16,13,32.00
2015,07,02,16,14,32.00
2015,07,02,16,15,32.00
2015,07,02,16,16,32.10
2015,07,02,16,17,32.10
2015,07,02,16,18,32.10
2015,07,02,16,19,32.10
2015,07,02,16,20,32.10
2015,07,02,16,21,32.00
2015,07,02,16,22,31.90
2015,07,02,16,23,31.90
2015,07,02,16,24,31.90
2015,07,02,16,25,31.90
2015,07,02,16,26,31.90
2015,07,02,16,27,31.90
2015,07,02,16,28,31.90
2015,07,02,16,29,31.90
2015,07,02,16,30,31.90
2015,07,02,16,31,31.90
2015,07,02,16,32,31.90
2015,07,02,16,33,31.80
2015,07,02,16,34,31.80
2015,07,02,16,35,31.80
2015,07,02,16,36,31.80
2015,07,02,16,37,31.80
2015,07,02,16,38,31.80
2015,07,02,16,39,31.80
2015,07,02,16,40,31.70
2015,07,02,16,41,31.80
2015,07,02,16,42,31.80
2015,07,02,16,43,31.80
2015,07,02,16,44,31.80
2015,07,02,16,45,31.80
2015,07,02,16,46,31.80
2015,07,02,16,47,31.80
2015,07,02,16,48,31.80
2015,07,02,16,49,31.80
2015,07,02,16,50,31.80
2015,07,02,16,51,31.80
2015,07,02,16,52,31.80
2015,07,02,16,53,31.80
2015,07,02,16,54,31.70
2015,07,02,16,55,31.70
2015,07,02,16,56,31.70
2015,07,02,16,57,31.60
2015,07,02,16,58,31.60
2015,07,02,16,59,31.60
2015,07,02,17,00,31.70
2015,07,02,17,01,31.70
2015,07,02,17,02,31.60
2015,07,02,17,03,31.60
2015,07,02,17,04,31.60
2015,07,02,17,05,31.70
2015,07,02,17,06,31.70
2015,07,02,17,07,31.70
2015,07,02,17,08,31.80
2015,07,02,17,09,31.80
2015,07,02,17,10,31.70
2015,07,02,17,11,31.70
2015,07,02,17,12,31.70
2015,07,02,17,13,31.70
2015,07,02,17,14,31.80
2015,07,02,17,15,31.70
2015,07,02,17,16,31.70
2015,07,02,17,17,31.70
2015,07,02,17,18,31.70
2015,07,02,17,19,31.70